Regional Weather Roundup
Issued by NWS

Home | Current Version | Previous Version | Text Only | Print | Product List | Glossary On
Versions: 1 2 3 4 5 6 7 8 9 10 11 12 13 14 15 16 17 18 19 20 21 22 23 24 25 26 27 28 29 30 31 32 33 34 35 36 37 38 39 40 41 42 43 44 45 46 47 48 49 50
000
ASUS44 KLUB 011810
RWRTX
WEST TEXAS WEATHER ROUNDUP
NATIONAL WEATHER SERVICE LUBBOCK TX
100 PM CDT MON SEP 01 2014

NOTE: "FAIR" INDICATES FEW OR NO CLOUDS BELOW 12,000 FEET WITH NO
SIGNIFICANT WEATHER AND/OR OBSTRUCTIONS TO VISIBILITY.

TXZ004-006>008-010-012-014-016-OKZ002-011900-
TEXAS PANHANDLE/OKLAHOMA PANHANDLE

CITY           SKY/WX    TMP DP  RH WIND       PRES   REMARKS
AMARILLO       SUNNY     83  60  45 N9        29.96S
BORGER         SUNNY     84  60  44 N12       29.93F
CANADIAN       SUNNY     79  67  66 NW6       29.89S
DALHART        SUNNY     82  54  37 NE12      30.01F
DUMAS          SUNNY     80  60  50 N10G16    29.97F
GUYMON         SUNNY     81  61  50 N13G24    29.93F
HEREFORD       SUNNY     86  59  39 N8        29.98S
PAMPA          SUNNY     80  59  49 N7        29.95S
PERRYTON       SUNNY     78  63  58 N13G21    29.92S
$$

TXZ026-029-035-045-048-011900-
SOUTHERN PANHANDLE/SOUTH PLAINS/ROLLING PLAINS

CITY           SKY/WX    TMP DP  RH WIND       PRES   REMARKS
CHILDRESS      SUNNY     94  66  39 SW13G23   29.85F HX  97
SEMINOLE       SUNNY     96  50  21 SW7       29.96F HAZE
LUBBOCK        SUNNY     94  58  29 SW10G18   29.92F
PLAINVIEW      SUNNY     90  60  36 W10       29.92F
SNYDER         SUNNY     92  68  45 S15       29.91S HX  95
$$

TXZ052-054-060>062-072-078-127-140-154-169-011900-
PERMIAN BASIN/CONCHO VALLEY/BIG COUNTRY/EDWARDS PLATEAU

CITY           SKY/WX    TMP DP  RH WIND       PRES   REMARKS
ABILENE        SUNNY     93  65  39 S21G32    29.90F HX  95
BIG SPRING     SUNNY     94  66  39 S13G21    29.94F HX  97
BRADY          SUNNY     90  64  43 SE12      29.93F
BROWNWOOD      SUNNY     91  64  40 SE15G22   29.92F
JUNCTION       SUNNY     91  63  39 S10G20    29.94F
MIDLAND        SUNNY     95  62  33 SW12      29.93S HX  96
ODESSA         SUNNY     94  59  31 SW12G17   29.94F
SAN ANGELO     SUNNY     94  65  38 S18G26    29.91F HX  96
SONORA         SUNNY     90  68  48 S13G21    29.99F
SWEETWATER     SUNNY     94  62  34 S20G26    29.94S HX  95
WINK           SUNNY    100  48  17 W7        29.90F HX  96
$$

TXZ055-058-074-075-080-082-011900-
FAR WEST/SOUTHWEST MOUNTAINS/TRANS PECOS

CITY           SKY/WX    TMP DP  RH WIND       PRES   REMARKS
ALPINE         SUNNY     92  49  23 CALM      30.12F
DRYDEN           N/A     95  64  35 VRB3      29.92F HX  97
EL PASO        MOSUNNY   92  42  17 CALM      30.03F
FORT STOCKTON  SUNNY    100  48  17 N7        29.93F HX  96
GUADALUPE PASS SUNNY     92  41  17 W15G23    30.15F
MARFA          SUNNY     90  55  31 SW7       30.13F
PECOS          SUNNY     99  48  17 N5        29.90F HX  95
PRESIDIO       FAIR      94  56  27 N5        29.95F
$$

TXZ014-016-019-021>030-083-011900
TEXAS TECH WEST TEXAS MESONET/TEXAS PANHANDLE/NORTHERN SOUTH PLAINS

CITY           SKY/WX    TMP DP  RH WIND       PRES   REMARKS
ABERNATHY 5ENE   N/A     95  55  25 W7        29.93F
AMARILLO 9NNE    N/A     83  61  48 N7        29.95S
AMARILLO 7SSE    N/A     83  60  46 N7        29.97S
AMHERST 1NE      N/A     89  51  26 NW7       29.95F
BOOTLEG 11WNW    N/A     85  55  36 N10       30.03F
CANADIAN 6E      N/A     80  64  59 NW5       29.88S
CAPROCK CYN SP   N/A     95  58  28 SW8       29.88F
CHILDRESS 2NNE   N/A     94  64  37 S10       29.84F HX  95
CLARENDON 2WSW   N/A     89  58  34 NW6       29.90S
CLAUDE 12SW      N/A     83  61  48 N7        29.94F
DIMMITT 2NE      N/A     86  55  34 NW6       29.97F
FLOYDADA 2NNE    N/A     90  60  35 SW10      29.92S
FRIONA 2NE       N/A     85  53  33 N7        29.99F
GOODLETT 3W      N/A     96  63  33 S14       29.82F HX  97
HART 3N          N/A     89  53  29 NW6       29.96S
HEREFORD 2NW     N/A     83  57  41 N7        29.98S
MCLEAN 1E        N/A     87  58  37 NW6       29.89S
MEMPHIS 1NE      N/A     92  64  39 SW3       29.85S
MULESHOE 2SSW    N/A     89  51  26 N6        29.97F
OLTON 6S         N/A     88  53  30 NW8       29.94F
PALO DURO SP     N/A     86  59  40 N10       29.96F
PAMPA 2E         N/A     79  63  57 N8        29.94S
PLAINVIEW 1S     N/A     91  59  35 W7        29.92F
SILVERTON 7ESE   N/A     92  59  32 W5        29.92S
TULIA 2ENE       N/A     90  53  28 NW8       29.94S
TURKEY 2WSW      N/A     94  61  33 SW7       29.86F
UMBARGER 3NNE    N/A     84  58  41 N6        29.98S
$$

TXZ033>036-039>041-045>048-011900
TEXAS TECH WEST TEXAS MESONET/SOUTH PLAINS

CITY           SKY/WX    TMP DP  RH WIND       PRES   REMARKS
AIKEN 3WSW       N/A     91  61  36 SW9       29.93F
ANDREWS 2NE      N/A     97  46  17 W8        29.94F
ANTON 6SSW       N/A     94  53  24 W8        29.93F
BROWNFIELD 2S    N/A     93  52  25 SW6       29.94F
DENVR CTY 7WNW   N/A     93  43  17 SW3       29.96F
GAIL 2ESE        N/A     93  64  38 S12       29.90F
LAMESA 2SE       N/A     95  60  30 S12       29.93F
LEVELLAND 4S     N/A     94  45  18 SW5       29.94F
LUBBOCK 3WNW     N/A     94  56  27 S6        29.93S
MORTON 1ENE      N/A     94  44  18 NW6       29.96S
ODONNELL 1N      N/A     93  56  28 SW13      29.93F
PLAINS 3N        N/A     94  45  18 SW3       29.97S
RALLS 1SE        N/A     92  62  37 SW9       29.93F
REESE CENTER     N/A     93  52  24 W8        29.93F
SEAGRAVES 1SW    N/A     94  51  23 S7        29.94F
SEMINOLE 2NNE    N/A     96  48  19 SW6       29.94F
SLATON 2NE       N/A     91  58  32 SW10      29.92F
SNYDER 3E        N/A     92  66  41 S15       29.90F HX  95
SUNDOWN 8SW      N/A     96  48  19 NW2       29.95F
TAHOKA 3NNE      N/A     97  58  27 S10       29.92F HX  95
WOLFFORTH 6SSW   N/A     94  55  27 SW7       29.93F
$$

TXZ031-032-036>038-042>044-011900-
TEXAS TECH WEST TEXAS MESONET/ROLLING PLAINS

CITY           SKY/WX    TMP DP  RH WIND       PRES   REMARKS
ASPERMONT 3NE    N/A     95  68  40 S13       29.85F HX  99
FLUVANNA 3WNW    N/A     91  64  40 S13       29.91F
GRAHAM 5SSW      N/A     91  61  36 S13       29.92S
GUTHRIE 10WSW    N/A     94  68  42 S10       29.86F HX  98
HASKELL 1NW      N/A     95  62  33 S15       29.85F HX  96
JAYTON 1SSE      N/A     94  66  39 SW15      29.86F HX  96
KNOX CITY 3NW    N/A     94  64  36 S10       29.85F HX  96
LK A HENRY 1NW   N/A     95  64  36 SW13      29.87F HX  97
NORTHFIELD 1S    N/A     94  66  39 S9        29.84F HX  96
ODELL 4ENE       N/A     93  70  47 SE15      29.83F HX  98
PADUCAH 10SW     N/A     94  67  40 S12       29.85F HX  97
POST 1NE         N/A     94  59  31 S10       29.89F
RRING SPRGS 3N   N/A     94  61  32 SW8       29.89F
SEYMOUR 3NW      N/A     94  66  40 S15       29.85F HX  96
SPUR 1W          N/A     93  62  35 SW13      29.87F
WEINERT 2NNE     N/A     95  69  42 S13       29.85F HX 100
WHITE RVR 6NE    N/A     93  62  35 S15       29.89F
$$

TXZ052-054-060>062-072-078-127-140-154-169-011900-
TEXAS TECH WEST TEXAS MESONET/PERMIAN BASIN/
CONCHO VALLEY/BIG COUNTRY/EDWARDS PLATEAU

CITY           SKY/WX    TMP DP  RH WIND       PRES   REMARKS
JUNCTION 1SSW    N/A     91  65  41 S10       29.94F
MERTZON 3NNE     N/A     92  67  42 S16       29.93F HX  96
SAN ANGELO 7NW   N/A     93  64  38 S16       29.91F
STRLNG CT 4WSW   N/A     94  67  41 S14       29.92F HX  97
ST LAWRNCE 5SW   N/A     90  62  39 S13       29.94S
SWEETWATR 11SW   N/A     93  66  40 S14       29.92F HX  96
WALL 1E          N/A     92  65  41 S14       29.92F
$$

TXZ055-058-074-075-080-082-011900-
TEXAS TECH WEST TEXAS MESONET/FAR WEST/SOUTHWEST MOUNTAINS/TRANS PECOS

CITY           SKY/WX    TMP DP  RH WIND       PRES   REMARKS
PRSMN GAP BBNP   N/A     96  61  31 SE1       29.94F HX  96
GUADLPE MTN NP   N/A     88  41  19 W6        30.16S
$$



USA.gov is the U.S. government's official web portal to all federal, state and local government web resources and services.